User: anonymous   Login
Location: Unspecified
(0.0000°N, 0.0000°E)
Time: 06:48:51
(UTC+00:00)
Language:

COSMOS 2409 - Orbit

View from above orbital plane
View from above orbital plane
View from above satellite
View from above satellite

Ground track
Ground track

The orbit data is extracted from the following two-line orbital elements,

1 28380U 04028A   22225.58421140  .00000049  00000-0  34406-4 0  9997
2 28380  82.9594  34.1235 0038294 216.3538 143.5018 13.76117898907012
Epoch (UTC): 13 August 2022 14:01:15
Eccentricity: 0.0038294
inclination: 82.9594°
perigee height: 949 km
apogee height: 1006 km
right ascension of ascending node: 34.1235°
argument of perigee: 216.3538°
revolutions per day: 13.76117898
mean anomaly at epoch: 143.5018°
orbit number at epoch: 90701

The dashed part of the orbit path shows where the satellite is in the earth's shadow,  

DLR